Temp
10 10 10 10 11 10 11 12 12 12 12 13 13 14 14 14 14 14 14 14 13 12 12 12 12 12 12 12 11 11 11 11 11 10 10 10 10 10 10 10 9 9 8 8 8 7 7 7 6
10 9 10 10 10 10 11 12 11 11 11 12 13 13 13 14 14 14 13 13 13 12 12 12 12 12 12 11 11 11 11 11 11 10 10 10 10 10 10 9 9 9 9 8 8 7 7 7 6
9 9 9 9 10 10 11 11 11 11 11 11 11 12 13 13 13 13 13 13 12 12 12 12 12 12 12 12 11 11 11 11 11 10 10 10 10 10 10 9 9 9 8 8 8 8 7 7 6
9 9 9 9 10 11 10 10 10 11 11 11 11 12 12 12 12 12 12 12 12 12 11 11 12 12 12 11 11 11 11 11 11 10 10 10 10 10 10 9 9 9 9 8 8 7 7 7 6
8 8 9 9 11 11 10 9 9 10 11 11 11 12 12 12 12 12 12 12 12 12 11 11 11 11 11 11 11 11 11 10 10 10 10 10 10 10 10 9 9 9 9 8 8 7 7 7 7
8 8 8 8 10 10 9 8 9 10 10 10 10 11 11 11 11 11 11 11 11 11 11 11 10 11 10 10 10 11 10 10 10 10 10 10 10 10 9 9 9 9 9 9 8 8 7 7 7
7 7 7 7 9 9 9 8 8 9 9 9 9 9 10 10 10 10 10 10 10 10 10 10 10 10 11 10 10 10 10 10 10 10 10 10 10 10 9 9 9 9 9 9 8 8 8 8 7
7 7 7 7 8 9 8 8 8 8 9 9 9 9 8 9 9 9 9 9 9 9 10 10 10 10 10 10 10 10 10 10 10 10 10 10 10 9 9 9 9 9 9 9 8 8 8 8 8
7 7 7 7 7 8 8 8 8 8 8 8 8 8 8 8 7 8 8 8 9 9 9 9 9 9 9 9 10 10 10 9 10 10 10 9 9 9 9 9 9 9 9 9 8 8 8 8 8
6 7 7 7 7 7 8 8 8 9 9 8 8 8 7 7 7 8 8 8 9 9 9 9 9 9 9 9 9 9 9 9 9 9 9 9 9 9 9 9 9 9 8 9 8 8 8 8 8
6 7 7 7 7 7 8 8 8 8 9 9 9 9 8 8 8 7 7 8 8 9 9 9 9 9 9 9 9 9 9 9 9 9 8 8 9 9 9 9 9 9 8 8 8 8 8 8 8
6 6 7 7 7 8 8 8 9 8 8 9 8 7 8 8 8 8 7 7 7 7 7 8 8 9 9 9 9 9 9 9 8 8 8 8 8 8 8 9 8 8 8 8 8 8 8 8 8
6 6 6 6 7 7 7 7 7 8 9 8 7 6 6 6 6 6 7 7 7 7 7 7 8 7 8 8 8 8 8 8 8 8 7 7 7 8 8 8 8 8 8 8 8 8 8 8 8
6 5 6 6 6 6 7 7 6 8 7 7 7 6 5 5 6 6 7 6 6 6 7 6 7 8 8 8 8 8 7 7 8 7 7 7 7 7 7 7 7 7 7 7 7 7 7 7 7
6 5 5 5 5 6 5 7 7 6 6 6 6 6 6 6 6 6 6 6 5 6 6 6 6 6 6 7 7 7 7 6 6 7 7 7 6 6 7 6 7 7 7 7 6 7 7 7 7
4 3 3 4 4 4 4 6 5 5 6 5 4 4 5 6 5 6 6 6 5 5 5 6 6 6 6 6 6 6 6 6 6 5 6 6 6 7 7 7 7 7 7 6 6 5 6 7 7
3 2 2 2 2 3 3 6 4 3 3 3 4 4 4 4 5 6 6 6 5 5 6 5 6 6 5 5 5 5 5 5 5 5 5 5 5 5 6 6 7 6 6 6 5 4 5 6 6
3 2 0 -0 1 1 1 5 4 2 2 3 4 3 3 4 4 4 5 5 4 4 5 5 5 5 5 5 5 5 4 4 4 5 5 5 5 5 5 5 5 6 6 5 5 4 4 4 4
1 0 -0 -0 1 0 1 3 4 1 2 3 4 3 2 3 4 4 4 4 3 3 4 4 5 5 5 5 5 4 4 4 4 4 5 5 5 5 5 5 5 5 5 5 5 5 5 4 4
0 -0 -0 -1 -0 -1 0 2 3 2 2 3 3 2 2 1 1 2 2 3 1 2 3 3 4 4 4 4 4 4 4 4 4 4 4 5 5 5 5 5 5 5 5 6 6 5 5 5 5
0 -1 -1 -1 -1 -1 -0 1 4 2 1 2 2 2 0 0 -0 1 0 1 1 0 1 2 3 3 4 4 4 4 4 4 4 4 4 4 4 5 5 5 5 6 6 6 6 6 5 5 5
-1 -1 -1 -1 -1 -1 -2 -2 1 -0 -0 0 0 0 0 0 -1 -1 -1 -0 -0 -1 1 1 2 3 3 3 4 4 3 3 3 4 4 4 4 4 5 5 6 6 6 6 6 5 5 5 5
-2 -1 -1 -1 -1 -1 -2 -2 1 -1 -1 -1 -2 -2 -1 -1 -1 -1 -1 -0 -1 0 -1 0 2 2 3 3 3 3 3 3 3 3 4 4 4 4 5 5 6 6 6 6 6 6 6 5 5
-1 -1 -1 -2 -2 -4 -1 -2 -2 -4 -4 -2 -3 -3 -2 -2 -1 -2 -1 -1 -1 -1 -2 -1 1 2 2 3 2 3 2 3 3 3 4 4 4 4 4 5 5 6 6 6 6 6 6 6 5
-2 -2 -3 -4 -5 -4 -2 -2 -4 -4 -3 -2 -4 -3 -3 -3 -2 -2 -2 -2 -2 -3 -4 -1 1 1 1 2 2 2 2 3 3 3 4 4 4 4 4 5 5 5 5 6 6 6 5 5 5
-2 -2 -2 -3 -4 -4 -2 -2 -4 -5 -4 -5 -5 -5 -6 -6 -6 -6 -6 -6 -6 -5 -3 -1 -1 -0 1 1 1 2 2 3 3 4 4 4 4 5 4 4 5 4 4 5 5 5 5 5 5
-2 -3 -3 -3 -4 -4 -2 -4 -5 -5 -5 -4 -4 -4 -4 -5 -5 -5 -5 -6 -6 -5 -4 -2 -1 -0 0 1 1 2 2 3 3 3 3 3 4 4 4 4 5 4 4 4 4 4 5 5 4
-2 -2 -3 -4 -4 -4 -3 -4 -3 -4 -4 -4 -4 -4 -4 -4 -4 -5 -5 -5 -6 -6 -3 -2 -1 0 1 1 1 2 2 2 3 3 3 3 3 3 3 4 4 4 4 4 4 4 4 4 4
-2 -3 -3 -3 -3 -5 -4 -3 -3 -3 -3 -4 -4 -4 -4 -4 -4 -4 -5 -5 -4 -3 -3 -3 -2 0 0 0 0 1 1 1 1 2 2 2 3 3 3 3 3 3 3 3 3 4 4 4 3
-2 -2 -2 -3 -5 -4 -4 -4 -3 -3 -3 -5 -4 -3 -3 -4 -4 -4 -3 -4 -3 -3 -3 -3 -2 -2 -2 -1 -1 -1 -0 -1 -1 -0 0 1 1 2 2 3 3 3 3 3 3 3 3 3 3
Height
3139 3139 3140 3142 3145 3140 3140 3142 3141 3140 3140 3141 3142 3142 3143 3142 3143 3145 3142 3142 3142 3142 3143 3143 3144 3145 3147 3148 3149 3151 3151 3151 3152 3152 3151 3151 3150 3150 3149 3149 3149 3148 3148 3148 3148 3149 3150 3150 3150
3138 3138 3139 3139 3140 3139 3140 3139 3139 3140 3139 3140 3141 3141 3143 3142 3143 3143 3142 3142 3142 3143 3144 3144 3144 3144 3145 3146 3147 3149 3150 3150 3150 3151 3150 3150 3151 3150 3150 3149 3149 3149 3148 3148 3148 3148 3148 3149 3149
3137 3137 3139 3138 3136 3137 3140 3139 3137 3138 3137 3137 3140 3140 3139 3141 3141 3142 3142 3142 3142 3142 3142 3143 3143 3143 3144 3144 3145 3146 3148 3149 3149 3149 3149 3149 3150 3150 3150 3150 3149 3149 3149 3148 3148 3148 3148 3148 3148
3136 3137 3139 3136 3135 3137 3139 3140 3138 3136 3135 3135 3138 3138 3137 3139 3140 3140 3140 3140 3140 3140 3140 3140 3141 3141 3141 3141 3142 3143 3145 3146 3147 3148 3148 3148 3149 3149 3150 3150 3149 3149 3149 3148 3148 3148 3148 3148 3148
3134 3135 3136 3133 3134 3136 3137 3136 3138 3136 3134 3134 3136 3136 3135 3135 3137 3137 3138 3138 3138 3138 3137 3137 3137 3137 3138 3138 3139 3141 3142 3143 3145 3146 3147 3147 3148 3148 3149 3149 3149 3148 3148 3148 3148 3147 3147 3148 3147
3132 3133 3132 3132 3132 3134 3134 3135 3134 3133 3131 3130 3132 3133 3133 3133 3134 3135 3134 3134 3134 3134 3134 3134 3134 3134 3135 3136 3136 3137 3138 3140 3141 3143 3144 3145 3146 3146 3147 3148 3148 3148 3148 3147 3147 3147 3147 3147 3146
3130 3130 3129 3130 3130 3130 3131 3131 3132 3130 3129 3129 3128 3129 3131 3131 3131 3132 3131 3130 3130 3131 3131 3131 3131 3131 3131 3132 3133 3134 3135 3136 3138 3139 3140 3142 3143 3144 3145 3146 3147 3146 3146 3147 3146 3146 3146 3146 3146
3126 3126 3125 3128 3128 3127 3127 3127 3128 3128 3127 3127 3125 3125 3126 3126 3127 3127 3127 3127 3126 3126 3127 3127 3127 3127 3127 3127 3128 3129 3131 3133 3134 3135 3137 3138 3139 3140 3142 3143 3144 3144 3144 3145 3145 3145 3145 3145 3145
3123 3123 3121 3124 3124 3122 3124 3122 3124 3124 3124 3123 3123 3124 3124 3123 3124 3123 3124 3124 3123 3122 3122 3123 3122 3122 3122 3122 3122 3124 3125 3127 3128 3130 3132 3133 3135 3137 3138 3139 3141 3141 3142 3142 3142 3142 3143 3143 3143
3121 3119 3119 3121 3120 3117 3117 3118 3116 3118 3118 3120 3120 3121 3121 3121 3120 3119 3119 3118 3117 3117 3116 3117 3117 3116 3115 3116 3116 3117 3118 3120 3122 3124 3126 3128 3131 3132 3133 3135 3136 3138 3138 3139 3139 3139 3140 3140 3140
3116 3115 3117 3115 3115 3114 3111 3113 3112 3110 3111 3116 3116 3117 3118 3117 3117 3116 3115 3113 3112 3110 3110 3110 3110 3111 3110 3109 3110 3111 3113 3114 3116 3118 3120 3123 3125 3127 3128 3129 3131 3133 3134 3135 3136 3136 3137 3137 3137
3112 3111 3112 3110 3109 3108 3107 3105 3105 3106 3107 3111 3109 3110 3110 3112 3112 3111 3109 3109 3106 3105 3105 3103 3102 3103 3104 3104 3104 3105 3106 3108 3110 3112 3115 3116 3118 3120 3123 3124 3125 3127 3129 3130 3131 3132 3132 3133 3134
3106 3107 3106 3106 3106 3105 3103 3101 3100 3097 3104 3102 3102 3103 3102 3102 3102 3102 3102 3100 3099 3096 3097 3098 3096 3096 3099 3100 3099 3099 3099 3100 3103 3105 3107 3109 3111 3114 3116 3118 3119 3121 3122 3124 3125 3126 3128 3128 3128
3102 3100 3101 3100 3102 3098 3095 3094 3094 3095 3097 3095 3094 3092 3092 3092 3093 3093 3093 3091 3089 3089 3088 3089 3091 3093 3092 3093 3095 3095 3095 3095 3096 3098 3101 3102 3104 3105 3107 3109 3111 3113 3114 3116 3118 3120 3121 3122 3123
3095 3094 3093 3096 3095 3091 3088 3084 3088 3087 3087 3086 3085 3085 3084 3086 3086 3085 3084 3081 3077 3079 3081 3083 3083 3086 3088 3088 3087 3088 3090 3092 3091 3092 3093 3094 3097 3098 3099 3101 3102 3104 3105 3107 3109 3112 3113 3114 3116
3091 3090 3089 3090 3089 3088 3084 3074 3081 3082 3080 3078 3077 3077 3079 3078 3076 3076 3075 3073 3070 3070 3073 3076 3077 3079 3082 3082 3081 3082 3084 3086 3086 3086 3087 3088 3090 3090 3090 3092 3094 3096 3096 3097 3100 3102 3102 3106 3107
3086 3085 3086 3086 3087 3084 3084 3066 3072 3074 3074 3073 3071 3071 3070 3068 3068 3065 3066 3065 3063 3062 3064 3066 3070 3073 3074 3076 3077 3078 3077 3076 3078 3080 3079 3080 3082 3083 3084 3085 3085 3087 3085 3087 3086 3090 3096 3095 3096
3081 3081 3082 3083 3084 3080 3075 3061 3066 3070 3068 3067 3064 3063 3059 3055 3055 3056 3056 3055 3055 3056 3057 3059 3063 3066 3068 3069 3071 3073 3072 3070 3069 3070 3072 3072 3072 3074 3075 3076 3076 3078 3077 3079 3071 3081 3083 3082 3087
3077 3075 3077 3079 3081 3074 3069 3057 3055 3064 3062 3060 3056 3054 3050 3046 3046 3046 3047 3046 3046 3048 3050 3051 3056 3059 3061 3062 3064 3066 3066 3063 3062 3062 3063 3063 3065 3066 3067 3068 3069 3070 3070 3071 3072 3074 3074 3072 3064
3075 3071 3070 3073 3075 3072 3064 3049 3054 3058 3056 3053 3048 3046 3044 3040 3040 3040 3040 3039 3042 3043 3044 3047 3049 3053 3055 3057 3058 3059 3059 3057 3055 3055 3054 3053 3055 3056 3057 3059 3060 3061 3061 3062 3064 3065 3067 3068 3071
3070 3070 3069 3067 3068 3067 3062 3047 3048 3052 3050 3046 3043 3042 3040 3036 3035 3033 3033 3034 3039 3042 3043 3043 3044 3046 3048 3051 3052 3052 3050 3049 3048 3048 3047 3046 3046 3046 3047 3048 3049 3051 3051 3052 3055 3057 3059 3060 3063
3067 3070 3068 3066 3064 3063 3062 3055 3046 3046 3043 3042 3040 3037 3035 3031 3031 3030 3029 3030 3031 3035 3037 3041 3040 3041 3042 3044 3045 3045 3043 3042 3041 3040 3040 3039 3038 3037 3036 3036 3037 3039 3040 3041 3044 3046 3047 3050 3051
3063 3066 3066 3064 3060 3059 3057 3060 3043 3041 3038 3036 3035 3035 3031 3029 3030 3029 3028 3028 3028 3027 3030 3034 3035 3036 3037 3037 3037 3038 3036 3035 3034 3032 3032 3032 3031 3029 3027 3025 3026 3027 3028 3030 3032 3033 3035 3037 3040
3062 3062 3062 3059 3057 3054 3049 3052 3042 3038 3037 3038 3033 3030 3029 3028 3025 3022 3023 3024 3022 3023 3025 3027 3028 3029 3030 3028 3029 3030 3030 3027 3027 3026 3024 3023 3022 3021 3020 3017 3015 3015 3017 3018 3020 3021 3022 3023 3025
3057 3059 3059 3058 3056 3051 3047 3048 3042 3038 3037 3034 3030 3025 3021 3019 3019 3015 3013 3014 3015 3017 3015 3023 3023 3023 3022 3023 3023 3023 3022 3021 3018 3017 3016 3015 3014 3013 3011 3009 3007 3007 3006 3007 3008 3008 3009 3010 3011
3048 3052 3053 3051 3051 3048 3046 3042 3040 3037 3035 3031 3027 3025 3022 3020 3017 3014 3010 3011 3015 3016 3019 3019 3018 3017 3018 3017 3017 3015 3012 3010 3009 3008 3007 3006 3004 3004 3003 3000 2999 2998 2998 2998 2997 2997 2998 2998 2998
3045 3045 3047 3047 3046 3046 3041 3039 3039 3036 3036 3033 3031 3030 3027 3025 3021 3018 3017 3016 3012 3015 3016 3014 3014 3014 3014 3013 3010 3007 3005 3003 3000 2998 2997 2996 2994 2994 2993 2992 2991 2990 2990 2988 2986 2986 2987 2987 2989
3040 3042 3043 3043 3044 3043 3034 3033 3031 3032 3034 3031 3029 3027 3025 3023 3023 3020 3019 3018 3017 3013 3014 3012 3011 3008 3007 3006 3003 2999 2996 2994 2992 2990 2988 2986 2985 2983 2983 2983 2983 2982 2981 2979 2978 2977 2977 2977 2977
3035 3035 3036 3036 3036 3035 3033 3028 3026 3028 3029 3029 3028 3026 3024 3021 3022 3020 3019 3018 3018 3012 3010 3006 3002 3001 3000 2998 2995 2991 2989 2987 2984 2982 2980 2978 2977 2974 2974 2973 2973 2972 2972 2971 2969 2968 2968 2968 2969
3028 3026 3027 3027 3030 3029 3027 3023 3023 3023 3025 3026 3025 3023 3021 3019 3017 3016 3015 3014 3012 3011 3007 3002 3001 2999 2996 2992 2989 2986 2982 2979 2977 2975 2973 2971 2968 2965 2964 2963 2963 2961 2961 2961 2960 2959 2959 2959 2960
Wind_Speed
7 7 6 5 5 6 2 1 3 9 8 4 7 8 6 7 4 4 6 6 10 9 11 13 13 18 20 20 19 16 13 11 8 8 7 6 7 6 6 4 3 3 5 7 7 8 8 8 8
9 7 6 6 7 8 1 9 9 4 1 4 7 11 9 11 11 16 16 9 6 8 10 12 14 17 22 22 22 21 17 14 12 11 11 9 8 8 7 6 5 4 4 6 7 8 9 10 10
11 8 6 5 10 12 3 8 8 2 4 8 9 17 19 16 19 19 15 12 10 10 10 10 14 17 23 25 25 24 23 20 17 14 15 12 10 9 9 8 7 5 5 5 7 8 9 10 10
11 9 7 12 13 9 5 7 12 7 3 9 11 18 19 19 14 15 20 18 17 16 16 17 18 20 24 28 28 27 26 25 22 20 18 16 15 11 10 11 9 8 7 6 6 8 9 10 10
10 10 12 15 13 11 11 9 8 7 4 1 10 18 18 17 16 17 20 19 21 21 20 18 19 20 22 29 30 29 29 28 26 24 22 21 19 16 12 13 12 10 10 8 7 7 8 10 10
11 10 13 16 15 12 14 9 7 6 3 5 10 16 18 17 18 20 22 24 23 22 18 19 18 20 21 23 31 32 30 30 29 27 26 24 23 21 16 14 14 14 12 11 10 8 8 10 10
11 13 17 18 17 15 18 12 10 7 2 5 3 9 16 18 19 23 22 24 25 25 24 22 20 19 24 26 26 31 33 32 32 31 29 28 26 24 21 17 15 15 15 14 11 11 10 10 10
13 15 19 19 17 19 16 15 14 9 7 8 6 5 10 14 19 22 21 23 26 27 28 30 28 23 22 27 28 28 32 34 34 34 32 31 30 27 24 21 18 17 16 16 14 13 12 12 11
13 17 20 18 18 19 17 20 19 19 14 10 8 7 11 10 12 17 21 25 29 32 33 32 32 31 28 26 29 30 29 34 36 36 35 35 33 30 28 25 22 19 19 18 17 16 14 13 12
16 22 19 18 19 23 21 21 23 23 25 19 18 15 13 15 20 24 26 27 29 33 34 33 34 35 32 32 31 30 32 32 36 38 37 36 34 33 31 28 25 23 21 20 20 19 18 16 14
22 25 21 24 25 27 30 26 26 27 29 28 27 25 22 20 21 24 28 29 33 37 39 36 32 32 30 28 31 32 32 34 35 38 38 36 36 35 34 32 30 27 25 23 21 20 20 17 16
20 24 24 27 28 30 32 34 33 32 30 28 31 31 32 31 30 30 31 34 36 35 37 39 38 36 35 32 28 30 32 34 34 37 38 37 37 37 36 35 33 31 29 26 24 23 21 21 20
24 26 28 29 29 32 34 35 35 37 28 31 33 35 35 35 33 32 34 37 41 40 39 40 43 42 39 33 30 27 27 32 37 37 38 38 39 38 38 37 36 34 33 31 29 27 25 24 24
26 27 27 28 26 28 32 33 33 34 29 32 35 39 39 36 34 33 35 36 41 44 44 43 43 41 37 35 34 33 27 28 34 38 38 40 40 40 40 40 39 38 37 34 33 31 29 27 27
23 26 26 25 21 22 27 36 27 17 20 27 32 36 35 34 30 28 25 33 40 43 44 43 40 36 32 33 36 33 29 28 27 34 40 39 39 39 41 42 42 41 39 38 37 34 33 33 32
25 26 24 13 23 18 23 37 29 32 29 31 31 29 30 33 33 33 30 36 40 42 44 43 44 39 34 33 38 35 31 31 32 32 36 39 39 41 43 44 44 42 43 42 40 38 34 37 36
20 17 19 18 14 19 22 43 28 25 36 38 36 36 37 37 35 39 37 39 43 44 45 44 43 40 33 34 35 35 35 35 33 35 37 36 38 42 43 43 45 45 46 46 53 43 46 43 40
16 15 15 15 18 24 27 44 38 36 36 37 34 28 31 35 41 39 41 42 39 45 46 46 43 36 33 36 35 36 39 42 43 41 38 39 38 40 42 43 44 43 45 43 36 41 56 59 44
22 25 24 23 20 26 30 42 43 41 40 35 31 27 26 29 35 37 40 40 41 48 49 46 41 36 36 37 38 37 39 38 41 42 40 40 41 42 41 42 44 44 43 43 40 40 38 42 41
22 26 28 25 19 24 31 46 41 39 36 26 24 22 25 32 30 33 32 35 43 47 46 43 40 39 39 38 38 37 38 34 37 39 41 40 40 42 45 46 46 46 46 46 45 43 43 44 41
23 24 25 29 23 24 29 45 36 39 18 27 19 18 18 24 24 29 31 35 43 40 39 38 38 38 38 37 35 34 38 34 31 35 37 38 40 41 42 44 46 47 49 50 49 49 47 47 48
25 20 24 25 28 19 17 15 45 17 23 20 21 17 13 24 29 32 33 38 42 32 30 34 33 31 31 28 28 37 36 31 30 29 31 33 37 40 42 43 45 46 47 49 49 50 52 51 53
29 25 22 23 26 28 20 9 21 18 20 27 25 17 10 15 31 36 33 37 40 44 29 27 25 25 25 25 23 29 32 31 29 29 30 31 34 36 39 42 44 45 46 48 49 49 51 53 53
23 22 21 25 20 7 11 18 7 17 23 21 24 17 19 20 35 34 36 38 37 32 29 33 25 23 23 24 28 35 36 34 33 33 32 31 33 33 35 39 41 43 44 45 47 49 50 51 51
23 18 4 4 2 5 5 5 6 15 20 28 19 17 19 25 34 32 31 30 26 25 19 20 23 19 25 27 28 32 33 31 30 34 33 32 32 33 34 36 37 40 41 43 45 46 47 49 50
21 21 8 5 3 3 3 6 6 12 19 15 8 9 6 3 3 5 10 13 11 11 14 16 16 17 22 27 29 29 30 31 31 33 33 31 32 33 33 35 37 37 38 39 40 40 40 41 42
13 18 16 9 6 3 6 6 5 4 3 6 7 9 10 10 12 5 3 4 4 5 10 11 15 19 24 26 28 28 30 32 33 35 34 33 32 33 33 33 34 35 36 37 38 40 40 43 43
22 12 7 8 3 5 6 7 11 8 6 2 1 4 9 8 10 27 21 27 23 12 12 11 15 17 21 24 27 28 30 33 35 37 36 33 33 33 33 32 33 33 34 35 36 37 38 40 40
22 20 11 10 7 4 2 5 12 9 7 7 5 4 6 12 16 23 24 21 24 21 18 21 22 23 23 25 27 28 30 30 31 31 34 34 33 32 33 32 32 33 34 34 35 36 35 37 38
31 30 34 15 7 8 4 6 11 9 4 5 5 2 7 8 10 13 19 23 23 23 24 22 22 23 23 23 24 26 27 26 27 26 27 30 31 33 34 32 31 32 33 34 35 35 35 36 35
Wind_Direction
252 248 242 245 251 241 267 55 47 5 27 304 260 257 268 249 246 282 296 272 212 204 211 215 225 224 215 217 218 214 212 218 235 255 275 297 314 302 298 298 288 264 247 234 224 216 211 219 229
254 246 225 234 243 252 256 122 71 6 332 256 283 282 273 287 302 314 309 296 260 251 247 246 249 237 226 220 222 224 220 218 224 236 250 262 286 292 291 294 296 288 264 251 243 234 226 227 234
260 248 242 245 246 250 197 191 311 333 287 282 290 298 288 293 306 311 306 281 266 249 256 248 252 254 239 232 225 227 229 226 223 228 241 253 264 285 282 286 290 288 277 263 250 247 243 240 244
260 254 238 245 256 265 254 221 309 342 285 246 277 281 282 293 299 309 315 304 289 281 269 266 263 259 245 234 233 230 231 233 234 233 235 247 257 264 270 270 278 285 283 275 262 257 254 251 250
260 256 247 250 253 270 277 282 314 344 325 319 254 276 278 285 287 306 311 303 298 289 285 277 261 255 249 237 233 233 233 234 237 238 238 239 246 256 263 263 266 274 280 280 275 264 265 261 256
264 251 247 256 267 266 274 292 271 261 230 181 227 264 271 277 283 299 302 304 303 295 292 273 273 259 255 250 241 236 235 236 237 239 240 241 243 247 253 262 262 266 271 276 281 278 269 270 268
266 261 259 266 271 269 279 271 290 204 168 174 252 284 277 276 281 293 289 291 290 294 292 287 279 267 257 252 249 244 239 238 238 239 241 242 243 242 244 251 257 259 262 264 268 274 277 275 271
264 263 266 273 283 283 292 285 281 235 193 199 259 283 312 302 297 294 290 284 286 288 289 292 290 279 274 260 252 248 245 242 239 240 241 243 244 243 243 245 250 255 259 262 264 264 269 276 280
272 265 269 278 284 284 277 280 269 246 235 223 221 250 277 282 282 284 288 289 287 287 288 287 287 283 277 265 258 252 246 243 241 240 240 242 244 246 247 245 248 251 255 260 262 263 263 265 273
279 275 281 285 283 282 270 265 270 252 241 241 231 227 251 265 272 268 271 275 279 283 287 288 289 285 281 271 260 253 245 242 241 240 241 243 245 247 248 245 244 246 248 253 257 258 260 262 263
273 273 281 276 279 277 281 274 272 270 256 248 253 244 239 252 265 277 277 274 278 283 286 286 286 282 281 276 258 254 250 244 242 241 240 241 243 245 247 247 246 246 248 250 255 260 263 263 257
264 273 274 277 275 279 279 280 277 273 275 275 276 279 273 263 265 269 274 275 274 274 277 281 280 280 281 274 264 250 252 246 240 241 240 241 242 244 246 248 248 246 248 248 248 252 255 257 257
270 278 276 276 282 285 286 283 284 276 270 274 281 282 280 279 278 274 271 271 272 272 273 271 276 282 284 276 265 256 256 249 239 235 236 239 241 243 246 248 249 249 249 249 248 247 250 251 254
274 274 274 276 283 284 284 282 276 283 286 272 270 272 275 280 278 274 269 267 268 266 269 272 275 277 280 272 265 264 270 261 244 238 237 238 238 239 242 245 246 248 249 249 250 249 247 247 247
275 279 280 289 297 290 289 288 294 282 286 277 271 270 273 271 271 263 268 258 267 267 267 271 275 276 274 269 267 267 268 265 256 245 241 239 239 241 243 245 246 247 248 248 248 248 248 244 244
269 276 290 279 301 303 298 285 284 291 287 278 279 277 274 269 266 254 262 265 260 268 264 264 270 272 276 270 263 267 268 269 266 257 249 244 243 245 245 247 248 249 250 251 249 247 252 249 245
270 271 283 294 304 286 292 291 293 291 298 303 297 292 284 274 265 260 255 269 266 262 260 261 264 269 272 267 265 270 275 276 267 263 258 250 246 246 250 250 251 252 252 249 243 242 248 253 247
283 282 285 285 299 293 292 287 294 304 310 311 313 308 292 278 265 264 263 273 256 255 254 256 258 261 262 261 262 270 276 276 274 270 261 255 252 249 248 249 252 252 254 259 259 244 244 241 245
277 278 281 286 299 297 298 295 300 311 313 316 304 296 297 288 277 271 269 267 248 239 240 242 246 250 250 256 263 270 276 279 269 268 263 255 254 254 254 252 253 254 256 258 261 260 261 252 251
270 277 283 300 312 303 306 295 302 314 325 325 321 311 289 283 284 279 265 255 235 230 230 235 241 243 249 255 263 272 284 275 267 263 263 261 257 255 256 256 256 257 258 259 261 260 262 262 261
259 270 289 298 304 303 307 299 307 322 326 331 338 317 289 284 265 266 248 238 225 224 228 231 236 242 248 255 262 282 294 275 263 259 260 261 261 260 259 258 257 257 258 258 258 260 259 260 260
263 277 286 286 293 308 301 295 312 327 319 326 336 331 307 262 236 238 229 221 222 224 234 241 241 246 253 259 271 283 289 278 276 269 264 264 264 262 262 262 262 261 258 259 258 258 259 258 258
266 278 279 285 295 302 297 251 291 306 313 335 331 334 284 256 229 227 221 227 231 236 226 244 237 245 248 261 275 285 279 279 281 279 275 270 268 269 267 264 263 263 263 263 263 261 260 259 257
264 269 272 286 287 275 271 220 291 338 330 335 326 298 275 264 225 220 227 231 226 226 216 226 225 243 249 263 272 279 281 280 284 282 280 278 273 269 269 267 266 266 264 263 263 262 263 263 262
243 245 271 280 212 238 138 229 269 313 307 307 287 244 215 212 224 208 209 217 215 205 205 222 234 246 262 275 275 273 281 284 287 290 285 279 276 274 271 269 265 265 267 267 266 265 265 266 266
243 235 211 232 212 277 281 254 252 310 316 302 218 170 126 121 179 182 149 164 186 201 217 239 262 271 270 268 272 282 289 293 294 293 291 285 278 274 272 268 267 266 268 268 268 269 268 266 266
223 216 231 242 270 274 234 220 273 244 222 61 46 24 7 21 41 63 326 18 112 249 254 257 268 272 267 275 286 290 291 291 293 292 291 288 282 278 273 271 268 265 265 268 270 271 270 269 267
231 242 188 189 209 229 241 212 208 185 216 225 40 53 52 22 326 26 17 2 352 352 308 294 283 282 288 291 292 293 294 292 290 290 291 287 284 282 279 274 269 268 266 268 268 267 267 265 266
224 214 200 200 203 197 261 230 196 247 243 237 271 327 349 352 343 337 342 343 334 329 320 307 307 302 295 296 298 300 295 293 292 288 284 284 283 282 279 279 278 274 268 264 263 264 267 268 265
254 243 230 201 199 216 221 255 224 230 231 237 218 250 343 353 347 337 327 329 327 322 312 311 304 299 301 304 304 302 303 303 300 295 290 285 285 284 284 284 280 277 272 262 260 263 265 266 267